Погода Запорожье

Погода Запорожье : погода сейчас, прогноз погоды и архив. Всё, что Вы хотите узнать о погоде Запорожье!

Хотите узнать прогноз погоды в Запорожье? Тогда Вам сюда: Погода в Запорожье

Поиск расширенной информации на нашем сайте:

Другие новости

Новости СМИ2

Главная страница сайта

Новости сайта

03.07.2017

Напоминаем, что на нашем специализированном сайте Метеоцентр.Азия вы можете получить высокодетализированные автоматические прогнозы погоды по пунктам России, СНГ и мира в авиационном формате (включающие направление и скорость ветра, видимость, явления погоды, количество и форму облачности, нижнюю и верхнюю границу облачности).


Погода Запорожье - сегодня

Время (UTC), дата Ветер
(°,м/с) 
Видим.   Явления Облачность Т
(°С)
Тd
(°С)
f(%) Тe
(°С)
Pmin
(гПа)
dP
(гПа)
Po
(мм)
O2
(г/м3)
Тmin Tmax R s Состояние
почвы
18 19.08.17 040 (СВ) 10 км    4/0 средняя 
[Ac trans]
+28.6 +8.3 28 +29  1017.3  0.8  754  273    +35.2       
21 19.08.17 040 (СВ) 10 км    ясно 
+25.5 +8.9 35 +26  1017.7  0.2  754  276           
00 20.08.17 040 (СВ) 10 км    ясно 
+23.4 +8.3 38 +23  1017.6  -0.2  754  278           
03 20.08.17 050 (СВ) 10 км    3/0 средняя 
[Ac trans]
+21.2 +8.5 44 +21  1017.2  -0.5  753  280           
06 20.08.17 060 (СВ) 10 км    ясно 
+26.4 +7.9 31 +26  1017.1  0.2  753  275  +21.2         
09 20.08.17 070 (В) 10 км    ясно 
+32.8 +8.3 22 +33  1016.1  -0.8  753  269           
12 20.08.17 080 (В) 10 км    4/0 средняя 
[Ac trans]
+35 +3.5 14 +35  1014.6  -1.4  752  268           
15 20.08.17 060 (СВ) 10 км    4/0 средняя 
[Ac trans]
+33.6 +5.2 17 +34  1013.6  -1  751  269           
18 20.08.17 030 (СВ) 10 км    3/0 средняя 
[Ac trans]
+27.2 +9.5 33 +28  1014.3  0.4  751  274    +35.2      мокрая 
21 20.08.17 040 (СВ) 10 км    ясно 
+23.8 +6.6 33 +24  1014  -0.4  751  277           
00 21.08.17 040 (СВ) 10 км    ясно 
+21.8 +6.9 38 +22  1013.6  -0.5  751  279           
03 21.08.17 050 (СВ) 10 км    ясно 
+20.9 +7.5 42 +21    -0.5        50     
06 21.08.17 080 (В) 10 км    ясно 
+25.8 +11.6 41 +29  1012.5  -0.4  750  274  +20.9  -39.7      затоплена
водой 
09 21.08.17 090 (В) 10 км    1/0 верхняя 
[Ci fib]
+31.6 +11.4 29 +35  1011.3  -0.9  749  269           
12 21.08.17 090 (В) 10 км  пыльная буря{снег}  ясно 
+33.8 +5.4 17 +34  1009.2  -2             
15 21.08.17 080 (В) 10 км    ясно 
+32.1 +6.3 20 +32  1008.1  -1.2  747  268           
18 21.08.17 050 (СВ) 10 км    3/0 средняя 
[Ac trans]
+25.6 +6.3 29 +26  1008.2  -0.2  747  274    +33.8      мокрая 
21 21.08.17 060 (СВ) 10 км    3/0 верхняя 
[Ci fib]
+24.2 +4 27 +24  1007.1  -1.1  746  275           
00 22.08.17 050 (СВ) 10 км    8/0 верхняя 
[Ci fib]
+22 +5.4 34 +22  1005.9  -1.3  745  277           
03 22.08.17 060 (СВ) 10 км    8/0 средняя, верхняя 
[Ac trans|Ci fib]
+21.8 +6.5 37 +22  1005.1  -0.8  744  277      110  970   
06 22.08.17 350 (С) 10 км  в посл. час ливневой дождь  8/5 1000 м кучево-дожд., средняя 
[Cb cap|Ac trans]
+24.1 +9.3 39 +25  1005.4  0.4  745  274  +21.4    0.0     
09 22.08.17 070 (В) 10 км    8/3 1500 м средняя, верхняя 
[Cu hum|Ac trans|Ci fib]
+30.6 +11.1 30 +33  1002.1  -3  742  267           
12 22.08.17 270 (З) 10 км    9/9 1500 м кучево-дожд. 
[Cb calv]
+24.5 +12.8 48 +30  1002.5  0.2  742  272           
15 22.08.17 350 (С) 10 км  {гроза, ливн. осадки}  8/5 1500 м средняя 
[Sc|Ac trans]
+23.7 +14.1 55 +31  1001.9  -0.6  742  272           
18 22.08.17 270 (З) 10 км  {гроза, ливн. осадки}  6/0 средняя 
[Ac trans]
+20.7 +15 70 +30  1004  1.9  743  275    +39.2  0.6     
Время (UTC), дата Ветер
(°,м/с) 
Видим.   Явления Облачность Т
(°С)
Тd
(°С)
f(%) Тe
(°С)
Pmin
(гПа)
dP
(гПа)
Po
(мм)
O2
(г/м3)
Тmin Tmax R s Состояние
почвы

Для получения пояснительной информации подведите курсор к названию столбца.

ПОГОДА Запорожье - архив

Всё, что Вы хотите узнать о погоде Запорожье - удобно и подробно!

Выберите нужную дату (начиная с 1 января 2015* года) и нажмите кнопку "Найти".
Будут отображены архивные сводки погоды по пункту Запорожье, начиная с указанной даты.


Отображать данные в формате CSV (для использования в таблицах Excel)


Внимание! Наш архив погоды предназначен исключительно для личного некоммерческого использования в познавательных целях. Если Вам необходимы официальные справки о состоянии погоды (для производственных, юридических, коммерческих и т.п. целей), обращайтесь в органы Росгидромета.

*Примечание: данная дата относится к архиву по метеостанциям СССР (Россия, СНГ, Балтия).
Архив по метеостанциям Зарубежной Европы и Азии (кроме Китая) хранится 10 дней, по другим регионам земного шара (Китай, Африка, Америка, Австралия, Океания) - 1 день.

Запорожье - район местоположения метеостанции


Название, широта, долгота, высота метеостанции:
Запорожье 47.8°ш. 35°д. 112 м над ур. моря [Украина]

Дополнительная информация

В oтличие oт бoльшинства пoгoдных сайтoв мы публикуем пoдрoбную метеoинфoрмацию в детальнoм прoфессиoнальнoм фoрмате.

Характеристики температуры и влажнoсти вoздуха измеряются на высoте 2 м в тени вдали oт зданий и деревьев.
Скoрoсть ветра измеряется на высoте 10 м (на урoвне рoста челoвека скoрoсть ветра ниже в 1.5-2 раза). Если метеoстанция нахoдится в гoрoде или в лесу, тo скoрoсть ветра занижена на 2-4 м/с пo сравнению с oткрытым местoм. Скoрoсть ветра над акватoриями крупных рек и oзёр, а также на вершинах хoлмoв на 2-5 м/с выше, чем в oбычных услoвиях.
Атмoсфернoе давление в разных тoчках местнoсти мoжет значительнo oтличаться oт давления на метеoстанции, в зависимoсти oт услoвий рельефа (при пoдъёме на 10 м давление пoнижается примернo на 1 мм рт.ст.).